Location: Campo Claro
(10.4907°N, 66.8285°W)
Time: 03:40:48
(UTC+00:00)

Cosmos 1553 Rocket - Pass Details

Date: 12 July 2022
Orbit: 941 x 1009 km, 82.9° (Epoch: 14 August)

Event Time Altitude Azimuth Distance (km) Brightness Sun altitude
Rises 09:37:38 0° 18° (NNE) 3,647 7.7 -8.6°
Reaches altitude 10° 09:40:41 10° 32° (NNE) 2,689 7.3 -8.0°
Maximum altitude 09:45:27 24° 84° (E) 1,875 6.6 -6.9°
Drops below altitude 10° 09:50:10 10° 135° (SE) 2,661 6.6 -5.8°
Sets 09:53:08 0° 149° (SSE) 3,600 7.1 -5.2°
